Regional Weather Roundup
Issued by NWS

Home | Current Version | Previous Version | Graphics & Text | Print | Product List | Glossary On
Versions: 1 2 3 4 5 6 7 8 9 10 11 12 13 14 15 16 17 18 19 20 21 22 23 24 25 26 27 28 29 30 31 32 33 34 35 36 37 38 39 40 41 42 43 44 45 46 47 48 49 50
000
ASUS45 KABQ 262210
RWRNM
WEATHER ROUNDUP FOR NEW MEXICO
NATIONAL WEATHER SERVICE ALBUQUERQUE NM
400 PM MDT SUN APR 26 2015

NOTE: "FAIR" MEANS FEW OR NO CLOUDS BELOW 12,000 FEET AGL WITH NO
       SIGNIFICANT WEATHER OR OBSTRUCTIONS TO VISION.

      THIS PRODUCT IS RELEASED AS TWO VERSIONS.  ONE VERSION NEAR
      THE TOP OF THE HOUR CONTAINING PRELIMINARY DATA FROM ALBUQUERQUE
      AND OTHER STATIONS.  A FINAL VERSION WITH ADDITIONAL DATA IS
      ISSUED ABOUT 10 MINUTES AFTER THE HOUR.

NMZ501-503-504-510>518-262300-
NORTHWEST PLATEAU/NORTHCENTRAL MOUNTAINS

CITY           SKY/WX    TMP DP  RH WIND       PRES   REMARKS
FARMINGTON     LGT RAIN  51  40  65 NW7       29.74S
LOS ALAMOS     CLOUDY    43  37  78 SE3       29.77F
SANTA FE       CLOUDY    46  36  68 SE8       29.74F
TAOS           CLOUDY    45  34  65 N8        29.77F
ANGEL FIRE     MOCLDY    41  35  81 S13       29.77F

$$
NMZ402-403-502-505>509-262300-
WESTCENTRAL MOUNTAINS/SOUTHWEST MOUNTAINS

CITY           SKY/WX    TMP DP  RH WIND       PRES   REMARKS
GALLUP         LGT RAIN  42  37  82 NW12      29.82R
GRANTS         LGT RAIN  44  39  80 N17G24    29.80R
SILVER CITY      N/A     54  36  50 W24       29.84F

$$
NMZ407-409-411-412-262300-
SOUTHERN DESERTS

CITY           SKY/WX    TMP DP  RH WIND       PRES   REMARKS
LORDSBURG      MOCLDY    55  37  50 W22G30    29.83F
DEMING         PTSUNNY   59  38  45 W25G35    29.80F
LAS CRUCES     MOSUNNY   61  33  35 W30G39    29.77F
ALAMOGORDO     MOSUNNY   59  34  38 S12       29.75F
T OR C         LGT RAIN  54  38  54 N15G26    29.71S

$$
NMZ519>523-262300-
CENTRAL VALLEYS/CENTRAL HIGHLANDS

CITY           SKY/WX    TMP DP  RH WIND       PRES   REMARKS
ALBUQUERQUE    LGT RAIN  48  42  80 NW5       29.76S
DOUBLE EAGLE   LGT RAIN  45  41  87 W10       29.77S
MORIARTY ARPT  MOCLDY    46  37  70 N6        29.76S
CLINES CORNERS CLOUDY    45  37  73 NW9       29.74S
BELEN          RAIN      44  41  90 S6        29.76S
SOCORRO        CLOUDY    57  34  42 N7        29.72F

$$
NMZ524>526-539-540-262300-
SOUTHCENTRAL MOUNTAINS

CITY           SKY/WX    TMP DP  RH WIND       PRES   REMARKS
RUIDOSO        PTSUNNY   46  30  53 SW22G30   29.76F

$$
NMZ527>531-262300-
NORTHEAST HIGHLANDS/NORTHEAST PLAINS

CITY           SKY/WX    TMP DP  RH WIND       PRES   REMARKS
LAS VEGAS      CLOUDY    46  36  68 SW22      29.76S
RATON          CLOUDY    55  25  31 S7G17     29.73S
CLAYTON        LGT RAIN  50  47  89 NE17      29.78F

$$
NMZ532>537-262300-
EASTCENTRAL PLAINS

CITY           SKY/WX    TMP DP  RH WIND       PRES   REMARKS
TUCUMCARI      CLOUDY    70  28  21 S14G23    29.66F
CANNON AFB     NOT AVBL
CLOVIS AIRPORT CLOUDY    64  27  24 SE13      29.71F

$$
NMZ028-029-538-262300-
SOUTHEAST PLAINS

CITY           SKY/WX    TMP DP  RH WIND       PRES   REMARKS
ROSWELL        PTSUNNY   70  27  20 W13G28    29.62F
ARTESIA        PTSUNNY   66  30  26 W25G36    29.68F
CARLSBAD       MOSUNNY   71  24  17 W29G39    29.65F
HOBBS          PTSUNNY   70  32  24 W18G28    29.68F


$$



USA.gov is the U.S. government's official web portal to all federal, state and local government web resources and services.